Hourly Data Report for August 26, 2017

PITT MEADOWS CS
BRITISH COLUMBIA

49°12'29.964" N
122°41'24.076" W
5.00 m
1106178
71775
WMM

Download Data

Hourly Data (August 2017)
Hourly Data Report for August 26, 2017
TIME
LST
Temp Definition
°C
Dew Point Definition
°C
Rel Hum Definition
%
Precip. Amount Definition
mm

Wind Dir Definition
10's deg

Wind Spd Definition
km/h
Visibility Definition
km
Stn Press Definition
kPa
Hmdx Definition


Wind Chill Definition


Weather Definition


00:00 13.3 11.0 86 0.0   0   101.95     LegendNANA
01:00 12.1 10.6 90 0.0 9 3   101.95     LegendNANA
02:00 12.0 9.9 87 0.0 12 3   101.98     LegendNANA
03:00 12.2 10.8 91 0.0   0   102.02     LegendNANA
04:00 10.9 9.1 89 0.0   0   102.06     LegendNANA
05:00 10.6 9.3 92 0.0 10 4   102.07     LegendNANA
06:00 11.8 10.5 92 0.0 8 1   102.13     LegendNANA
07:00 14.6 11.7 83 0.0   0   102.15     LegendNANA
08:00 16.9 11.9 73 0.0 15 2   102.17     LegendNANA
09:00 18.7 11.6 63 0.0 20 5   102.18     LegendNANA
10:00 21.7 11.8 53 0.0 26 4   102.20     LegendNANA
11:00 23.6 11.6 47 0.0 24 4   102.18 26   LegendNANA
12:00 25.1 9.9 38 0.0 23 7   102.12 26   LegendNANA
13:00 26.2 9.4 35 0.0 26 9   102.08 27   LegendNANA
14:00 27.0 10.9 37 0.0 27 12   102.04 29   LegendNANA
15:00 27.9 10.6 34 0.0 28 10   102.00 29   LegendNANA
16:00 27.6 9.6 32 0.0 27 13   101.96 29   LegendNANA
17:00 27.4 9.6 33 0.0 27 8   101.92 28   LegendNANA
18:00 26.7 9.3 34 0.0 28 8   101.88 28   LegendNANA
19:00 23.4 9.9 42 0.0 26 5   101.89 25   LegendNANA
20:00 21.3 9.3 46 0.0 26 6   101.93     LegendNANA
21:00 19.0 10.6 58 0.0   0   101.94     LegendNANA
22:00 17.6 11.5 67 0.0 29 3   101.96     LegendNANA
23:00 15.7 11.7 77 0.0   0   101.96     LegendNANA

Notes on Data Quality.

Legend

  • E = Estimated
  • M = Missing
  • NA = Not Available*
  • [empty] = Indicates an unobserved value
Date modified: